Location: Killam
(52.7910°N, 111.8608°W)
Time: 10:25:42
(UTC+00:00)

FENGYUN 1C DEB - Pass Details

Date: 28 May 2024
Orbit: 795 x 992 km, 98.4° (Epoch: 16 June)

Event Time Altitude Azimuth Distance (km) Brightness Sun altitude
Rises 07:35:04 0° 8° (N) 3,317 ? -15.6°
Reaches altitude 10° 07:37:48 10° 354° (N) 2,392 ? -15.6°
Maximum altitude 07:41:51 23° 304° (NW) 1,669 ? -15.6°
Drops below altitude 10° 07:45:58 10° 253° (WSW) 2,440 ? -15.5°
Enters shadow 07:47:58 - 243° (WSW) 3,106 ? -15.5°
